Location: Bishop�s Knoyle
(51.0728°N, 2.1714°W)
Time: 00:02:43
(UTC+00:00)

Nauka - Pass Details

Date: 30 September 2021
Orbit: 417 x 423 km, 51.6° (Epoch: 24 October)

Event Time Altitude Azimuth Distance (km) Brightness Sun altitude
Rises 19:00:23 0° 284° (WNW) 2,367 ? -12.1°
Reaches altitude 10° 19:02:29 10° 281° (W) 1,502 ? -12.4°
Maximum altitude 19:05:50 66° 199° (SSW) 463 ? -12.9°
Enters shadow 19:07:44 23° 122° (ESE) 938 ? -13.2°
